Humidity-temperature Sensor

Selected Measurement Type: Air Temperature

 
Air Temperature [°C]     6 entries per hour
Showing data from 9/10/2020 (00:00:00 Z) to 9/3/2020 (00:01:00 Z)
Previous Next [ Day | 3-Days | 7-Days ]
First Last
Prev [ Day | 3-Days | 7-Days ] Next
First Last

Start Time:     :
End Time:     :     
Time (in GMT) :00 :50 :40 :30 :20 :10
Previous Next [ Day | 3-Days | 7-Days ]
First Last
Prev [ Day | 3-Days | 7-Days ] Next
First Last


123 => good data
MM => data is determined as missing
-- => data not received/configured
Back to Top Back to Top
9/10/2020 00:00 to 23:10 28.42 28.35 28.42 28.37 28.30 28.39
9/9/2020 23:00 to 22:10 28.47 28.37 28.36 28.40 28.31 28.45
9/9/2020 22:00 to 21:10 28.30 28.35 28.28 28.31 28.27 28.18
9/9/2020 21:00 to 20:10 28.05 28.04 27.99 27.94 27.89 27.97
9/9/2020 20:00 to 19:10 27.89 27.93 27.86 27.81 27.61 27.74
9/9/2020 19:00 to 18:10 27.59 27.57 27.71 27.72 27.63 27.74
9/9/2020 18:00 to 17:10 27.63 27.48 27.52 27.49 27.49 27.49
9/9/2020 17:00 to 16:10 27.37 27.47 27.36 27.33 27.19 27.15
9/9/2020 16:00 to 15:10 27.20 27.09 27.07 27.11 27.23 27.15
9/9/2020 15:00 to 14:10 27.24 27.14 27.21 27.00 26.84 26.77
9/9/2020 14:00 to 13:10 26.56 26.41 26.41 26.34 26.33 25.95
9/9/2020 13:00 to 12:10 26.00 25.88 26.01 26.00 26.04 26.06
9/9/2020 12:00 to 11:10 26.46 26.73 26.93 26.94 26.82 26.44
9/9/2020 11:00 to 10:10 26.65 26.62 26.66 26.53 26.35 26.31
9/9/2020 10:00 to 9:10 26.24 25.97 25.85 25.77 25.66 26.21
9/9/2020 09:00 to 8:10 25.55 25.22 25.28 25.48 26.35 27.53
9/9/2020 08:00 to 7:10 27.49 27.34 27.31 27.43 27.41 27.70
9/9/2020 07:00 to 6:10 27.26 27.68 27.71 27.48 28.34 28.49
9/9/2020 06:00 to 5:10 28.50 28.40 28.55 28.54 28.45 28.40
9/9/2020 05:00 to 4:10 28.42 28.39 28.47 28.55 28.53 28.59
9/9/2020 04:00 to 3:10 28.66 28.69 28.49 28.70 28.68 28.94
9/9/2020 03:00 to 2:10 28.93 29.03 28.90 28.75 28.77 28.74
9/9/2020 02:00 to 1:10 28.82 28.75 28.67 28.52 28.52 28.33
9/9/2020 01:00 to 0:10 28.48 28.47 28.26 28.30 28.30 28.34
9/9/2020 00:00 to 23:10 28.20 28.17 28.04 28.03 28.10 28.10
9/8/2020 23:00 to 22:10 28.16 28.09 27.92 27.67 27.94 28.51
9/8/2020 22:00 to 21:10 28.10 28.03 28.19 27.66 26.85 26.90
9/8/2020 21:00 to 20:10 27.89 28.29 28.17 28.18 28.25 28.31
9/8/2020 20:00 to 19:10 28.18 28.08 28.08 27.89 27.84 27.61
9/8/2020 19:00 to 18:10 27.68 27.90 28.04 27.99 27.83 27.74
9/8/2020 18:00 to 17:10 27.72 27.50 27.19 27.33 27.39 27.43
9/8/2020 17:00 to 16:10 27.55 27.58 27.58 27.53 27.59 27.38
9/8/2020 16:00 to 15:10 27.39 27.28 27.22 27.42 27.51 27.43
9/8/2020 15:00 to 14:10 27.34 27.14 26.94 26.95 26.68 26.55
9/8/2020 14:00 to 13:10 26.60 26.27 25.99 25.75 25.38 25.34
9/8/2020 13:00 to 12:10 25.46 25.63 26.35 25.68 25.84 25.51
9/8/2020 12:00 to 11:10 25.92 26.35 26.30 26.53 27.51 27.92
9/8/2020 11:00 to 10:10 27.90 27.95 27.89 27.86 27.99 27.90
9/8/2020 10:00 to 9:10 28.00 27.95 27.90 27.88 28.29 28.21
9/8/2020 09:00 to 8:10 28.24 28.12 28.17 28.09 28.13 28.21
9/8/2020 08:00 to 7:10 28.12 28.18 28.28 28.20 28.28 28.16
9/8/2020 07:00 to 6:10 28.18 28.25 28.16 28.16 28.15 28.20
9/8/2020 06:00 to 5:10 28.30 28.30 28.10 28.20 28.09 28.16
9/8/2020 05:00 to 4:10 28.12 28.37 28.28 28.35 28.53 28.45
9/8/2020 04:00 to 3:10 28.47 28.38 28.41 28.51 28.73 28.56
9/8/2020 03:00 to 2:10 28.58 28.68 28.53 28.32 28.40 28.27
9/8/2020 02:00 to 1:10 28.28 28.31 28.49 28.35 28.22 28.14
9/8/2020 01:00 to 0:10 28.16 28.15 28.32 28.15 28.13 28.43
9/8/2020 00:00 to 23:10 28.26 28.32 28.35 28.53 28.61 28.58
9/7/2020 23:00 to 22:10 28.59 28.46 28.51 28.46 28.44 28.45
9/7/2020 22:00 to 21:10 28.32 28.33 28.41 28.39 28.20 28.00
9/7/2020 21:00 to 20:10 28.03 27.89 27.98 27.86 27.96 27.88
9/7/2020 20:00 to 19:10 27.82 27.80 27.76 27.67 27.73 27.55
9/7/2020 19:00 to 18:10 27.55 27.43 27.25 27.49 27.57 27.39
9/7/2020 18:00 to 17:10 27.28 27.49 27.65 27.83 27.28 27.02
9/7/2020 17:00 to 16:10 27.01 27.16 26.94 26.78 26.78 26.85
9/7/2020 16:00 to 15:10 26.91 26.53 26.42 26.17 26.49 26.45
9/7/2020 15:00 to 14:10 26.11 26.14 26.63 27.12 26.94 26.96
9/7/2020 14:00 to 13:10 26.62 26.54 25.95 25.93 25.87 25.93
9/7/2020 13:00 to 12:10 25.94 25.93 25.88 25.85 24.87 25.44
9/7/2020 12:00 to 11:10 26.39 26.45 26.71 26.64 27.59 27.47
9/7/2020 11:00 to 10:10 27.97 27.97 27.81 28.52 28.65 28.63
9/7/2020 10:00 to 9:10 28.67 28.74 28.56 28.50 28.52 28.32
9/7/2020 09:00 to 8:10 28.24 28.56 28.58 28.62 28.58 28.67
9/7/2020 08:00 to 7:10 28.58 28.61 28.62 28.54 28.70 28.57
9/7/2020 07:00 to 6:10 28.58 28.55 28.65 28.41 28.44 28.45
9/7/2020 06:00 to 5:10 28.47 28.39 28.48 28.44 28.43 28.48
9/7/2020 05:00 to 4:10 28.59 28.77 28.86 28.86 28.96 28.99
9/7/2020 04:00 to 3:10 28.81 28.52 29.04 29.00 29.05 29.10
9/7/2020 03:00 to 2:10 29.18 29.14 28.88 29.02 29.06 28.95
9/7/2020 02:00 to 1:10 29.02 28.81 28.97 28.93 28.79 28.70
9/7/2020 01:00 to 0:10 28.80 28.81 28.75 28.66 28.65 28.65
9/7/2020 00:00 to 23:10 28.68 28.65 28.65 28.64 28.59 28.65
9/6/2020 23:00 to 22:10 28.70 28.64 28.74 28.70 28.80 28.82
9/6/2020 22:00 to 21:10 28.64 28.75 28.59 28.54 28.51 28.41
9/6/2020 21:00 to 20:10 28.28 28.40 28.31 28.35 28.16 28.27
9/6/2020 20:00 to 19:10 28.22 27.87 27.51 27.20 27.49 27.43
9/6/2020 19:00 to 18:10 27.84 27.61 27.55 27.68 28.39 28.32
9/6/2020 18:00 to 17:10 28.33 28.33 28.19 28.44 28.06 28.03
9/6/2020 17:00 to 16:10 28.22 28.35 28.27 28.28 28.28 28.36
9/6/2020 16:00 to 15:10 28.22 28.36 28.42 28.38 28.28 28.32
9/6/2020 15:00 to 14:10 28.36 28.46 28.31 28.40 28.36 28.52
9/6/2020 14:00 to 13:10 28.42 28.46 28.20 27.62 27.34 27.61
9/6/2020 13:00 to 12:10 28.21 28.31 28.33 28.41 28.40 28.52
9/6/2020 12:00 to 11:10 28.47 28.34 28.45 28.30 28.35 28.44
9/6/2020 11:00 to 10:10 28.38 28.66 28.68 28.69 28.68 28.48
9/6/2020 10:00 to 9:10 28.62 28.76 28.74 28.67 28.60 28.52
9/6/2020 09:00 to 8:10 28.57 28.65 28.57 28.55 28.58 28.62
9/6/2020 08:00 to 7:10 28.68 28.13 27.89 27.57 27.44 27.34
9/6/2020 07:00 to 6:10 27.38 26.98 27.52 27.95 28.68 28.77
9/6/2020 06:00 to 5:10 28.61 28.59 28.68 28.62 28.91 28.93
9/6/2020 05:00 to 4:10 28.96 29.01 29.13 29.04 28.95 29.14
9/6/2020 04:00 to 3:10 29.12 29.21 29.13 29.06 28.93 29.07
9/6/2020 03:00 to 2:10 29.17 29.06 28.94 29.11 29.11 28.86
9/6/2020 02:00 to 1:10 28.82 28.84 28.47 28.18 28.04 27.55
9/6/2020 01:00 to 0:10 27.36 26.33 26.61 28.00 28.54 28.26
9/6/2020 00:00 to 23:10 28.73 28.80 28.67 28.73 28.70 28.74
9/5/2020 23:00 to 22:10 28.67 28.62 28.71 28.56 28.69 28.60
9/5/2020 22:00 to 21:10 28.66 28.65 28.61 28.65 28.69 28.60
9/5/2020 21:00 to 20:10 28.66 28.74 28.68 28.59 28.64 28.69
9/5/2020 20:00 to 19:10 28.56 28.74 28.58 28.55 28.49 28.61
9/5/2020 19:00 to 18:10 28.51 28.52 28.58 28.56 28.65 28.49
9/5/2020 18:00 to 17:10 28.40 28.28 28.31 28.24 28.42 28.33
9/5/2020 17:00 to 16:10 28.45 28.31 28.33 28.39 28.27 28.24
9/5/2020 16:00 to 15:10 28.21 28.28 28.22 28.38 28.20 28.24
9/5/2020 15:00 to 14:10 28.21 28.17 28.26 28.09 28.06 28.16
9/5/2020 14:00 to 13:10 28.26 28.37 28.34 28.29 28.21 28.21
9/5/2020 13:00 to 12:10 28.20 28.04 28.31 28.38 28.22 28.27
9/5/2020 12:00 to 11:10 28.28 28.30 28.30 28.36 28.30 28.29
9/5/2020 11:00 to 10:10 28.31 28.39 28.28 28.36 28.32 28.23
9/5/2020 10:00 to 9:10 28.29 28.36 28.42 28.33 28.48 28.46
9/5/2020 09:00 to 8:10 28.41 28.42 28.55 28.39 28.29 28.30
9/5/2020 08:00 to 7:10 28.36 28.37 28.35 28.25 28.42 28.45
9/5/2020 07:00 to 6:10 28.42 28.29 28.36 28.52 28.33 28.33
9/5/2020 06:00 to 5:10 28.44 28.44 28.35 28.36 28.40 28.37
9/5/2020 05:00 to 4:10 28.36 28.45 28.46 28.43 28.52 28.54
9/5/2020 04:00 to 3:10 28.60 28.45 28.47 28.54 28.79 28.78
9/5/2020 03:00 to 2:10 28.67 28.66 28.57 28.60 28.60 28.67
9/5/2020 02:00 to 1:10 28.60 28.40 28.58 28.38 28.44 28.42
9/5/2020 01:00 to 0:10 28.36 28.34 28.36 28.30 28.32 28.22
9/5/2020 00:00 to 23:10 28.27 28.24 28.33 28.34 28.24 28.19
9/4/2020 23:00 to 22:10 28.32 28.32 28.26 28.28 28.31 28.36
9/4/2020 22:00 to 21:10 28.32 28.24 28.29 28.32 28.34 28.38
9/4/2020 21:00 to 20:10 28.37 28.41 28.37 28.34 28.30 28.31
9/4/2020 20:00 to 19:10 28.19 28.15 28.17 28.21 28.19 28.22
9/4/2020 19:00 to 18:10 28.41 28.25 28.16 28.00 27.97 28.05
9/4/2020 18:00 to 17:10 28.04 27.92 27.99 27.96 27.98 27.89
9/4/2020 17:00 to 16:10 27.87 27.87 27.95 27.98 27.88 27.91
9/4/2020 16:00 to 15:10 27.93 28.02 27.94 28.10 27.90 27.97
9/4/2020 15:00 to 14:10 27.99 27.99 27.95 28.07 28.09 28.09
9/4/2020 14:00 to 13:10 28.06 28.06 27.94 28.02 28.06 27.98
9/4/2020 13:00 to 12:10 28.08 28.13 28.02 28.24 28.10 28.15
9/4/2020 12:00 to 11:10 28.24 28.20 28.34 28.24 28.36 28.25
9/4/2020 11:00 to 10:10 28.30 28.32 28.35 28.52 28.43 28.44
9/4/2020 10:00 to 9:10 28.57 28.53 27.95 27.24 26.90 26.81
9/4/2020 09:00 to 8:10 26.78 26.51 26.49 26.45 25.93 26.18
9/4/2020 08:00 to 7:10 25.86 25.79 25.66 25.69 25.87 25.80
9/4/2020 07:00 to 6:10 25.38 25.50 25.64 25.44 25.37 25.23
9/4/2020 06:00 to 5:10 25.34 25.04 24.84 25.62 26.08 26.26
9/4/2020 05:00 to 4:10 28.46 28.54 28.54 28.42 28.06 27.61
9/4/2020 04:00 to 3:10 28.04 28.28 28.36 28.08 28.04 28.52
9/4/2020 03:00 to 2:10 28.47 28.32 28.25 28.14 27.99 28.03
9/4/2020 02:00 to 1:10 27.52 27.44 27.94 27.60 27.24 26.73
9/4/2020 01:00 to 0:10 26.51 27.80 27.84 27.62 27.65 27.45
9/4/2020 00:00 to 23:10 27.32 27.83 27.81 27.81 27.77 27.36
9/3/2020 23:00 to 22:10 27.12 26.45 25.76 25.61 25.41 25.64
9/3/2020 22:00 to 21:10 25.04 25.59 25.83 26.00 25.37 26.49
9/3/2020 21:00 to 20:10 26.36 26.13 25.88 25.84 25.77 25.66
9/3/2020 20:00 to 19:10 25.52 25.52 25.48 25.39 25.47 25.40
9/3/2020 19:00 to 18:10 25.91 26.15 26.09 26.08 25.43 25.00
9/3/2020 18:00 to 17:10 24.34 24.46 25.34 25.77 26.09 26.31
9/3/2020 17:00 to 16:10 26.41 27.37 27.53 27.28 27.22 27.31
9/3/2020 16:00 to 15:10 27.28 27.02 27.11 26.68 27.07 27.80
9/3/2020 15:00 to 14:10 27.81 27.83 27.77 27.66 27.69 27.70
9/3/2020 14:00 to 13:10 27.80 27.60 27.23 26.84 27.41 27.59
9/3/2020 13:00 to 12:10 26.91 26.86 27.63 27.52 27.45 27.35
9/3/2020 12:00 to 11:10 27.35 27.35 27.34 27.35 27.34 27.26
9/3/2020 11:00 to 10:10 27.28 27.28 27.28 27.23 27.20 27.30
9/3/2020 10:00 to 9:10 27.20 27.41 27.32 27.33 27.21 27.06
9/3/2020 09:00 to 8:10 26.92 26.64 26.72 27.05 26.96 26.93
9/3/2020 08:00 to 7:10 27.17 26.98 27.39 27.58 27.59 27.58
9/3/2020 07:00 to 6:10 27.53 27.63 27.55 27.54 27.58 27.66
9/3/2020 06:00 to 5:10 27.77 27.70 27.69 27.74 27.67 27.62
9/3/2020 05:00 to 4:10 27.63 27.64 27.78 27.81 27.75 28.04
9/3/2020 04:00 to 3:10 27.93 28.08 27.67 27.53 27.49 27.40
9/3/2020 03:00 to 2:10 27.28 27.42 27.49 27.65 27.76 27.57
9/3/2020 02:00 to 1:10 27.51 27.62 27.48 27.48 27.43 27.40
9/3/2020 01:00 to 0:10 27.68 27.37 27.24 27.12 27.01 27.03